Regional Weather Roundup
Issued by NWS Sioux Falls, SD

Home | Current Version | Previous Version | Text Only | Print | Product List | Glossary On
Versions: 1 2 3 4 5 6 7 8 9 10 11 12 13 14 15 16 17 18 19 20 21 22 23 24 25 26 27 28 29 30 31 32 33 34 35 36 37 38 39 40 41 42 43 44 45 46 47 48 49 50
000
ASUS43 KFSD 240202
RWRFSD

WEATHER ROUNDUP FOR SE SOUTH DAKOTA/SW MINNESOTA/NW IOWA
NATIONAL WEATHER SERVICE SIOUX FALLS SD
800 PM CST THU FEB 23 2017

NOTE: "FAIR" INDICATES FEW OR NO CLOUDS BELOW 12,000 FEET WITH NO
SIGNIFICANT WEATHER AND OR OBSTRUCTIONS TO VISIBILITY.


SDZ038>040-050-052>070-240300-
SOUTHEAST SOUTH DAKOTA

CITY           SKY/WX    TMP DP  RH WIND       PRES   REMARKS
BROOKINGS      CLOUDY    27  22  81 NE20G31   29.85  WCI  13
CHAMBERLAIN    CLOUDY    29  25  86 N15       29.93R WCI  18
HURON          CLOUDY    28  22  78 NE20      29.92R WCI  15
MADISON        CLOUDY    27  27 100 NE21G29   29.86R WCI  13
MITCHELL       CLOUDY    30  24  78 N20G25    29.90R WCI  17
SIOUX FALLS    LGT SNOW  28  27  96 NE22G29   29.84R VSB 3/4 WCI  14
WINNER         LGT SNOW  27  24  89 N21       29.91R FOG     WCI  13
YANKTON        CLOUDY    28  27  93 N17G23    29.79F VSB 3/4 WCI  16
$$

MNZ071-072-080-081-089-090-097-098-240300-
SOUTHWEST MINNESOTA

CITY           SKY/WX    TMP DP  RH WIND       PRES   REMARKS
FAIRMONT       LGT SNOW  30  29  96 N16       29.83R FOG     WCI  19
JACKSON        SNOW      28  28 100 N20       29.83R VSB 1/2 WCI  15
LUVERNE        LGT SNOW  30  27  86 NE18G24   29.82S WCI  18
MARSHALL       CLOUDY    30  25  81 N18G28    29.88S WCI  18
MONTEVIDEO     CLOUDY    28  25  86 NE16G25   29.93F WCI  17
PIPESTONE      CLOUDY    28  21  74 NE22G30   29.82R WCI  15
REDWOOD FALLS  CLOUDY    31  23  72 NE13G24   29.86F WCI  21
TRACY          CLOUDY    31  27  86 N17G25    29.87R WCI  19
WINDOM         CLOUDY    28  25  86 N14       29.86R WCI  17
WORTHINGTON    SNOW      27  26  96 NE22      29.83R VSB 1/2 WCI  13
$$

IAZ001>003-012>014-020>022-031-032-NEZ013-014-SDZ071-240300-
NORTHWEST IOWA

CITY           SKY/WX    TMP DP  RH WIND       PRES   REMARKS
CHEROKEE       LGT SNOW  31  31 100 NE21G28   29.71F VSB 1   WCI  18
DENISON        LGT RAIN  34  32  93 NE22G29   29.61F WCI  22
ESTHERVILLE    LGT SNOW  29  29 100 N25       29.77R VSB 3/4 WCI  14
LE MARS        LGT SNOW  30  30 100 NE22G28   29.75R VSB 3/4 WCI  17
ORANGE CITY    LGT SNOW  28  28 100 NE17G25   29.77R VSB 1   WCI  16
SHELDON        SNOW      28  28 100 NE23G35   29.73F VSB 1/4 WCI  14
SIOUX CITY     SNOW      33  30  88 NE22G33   29.70F VSB 1/4 WCI  21
SPENCER        LGT SNOW  30  29  96 NE25G32   29.77R VSB 3/4 WCI  16
STORM LAKE     MIX PCPN  30  30 100 NE31G41   29.69R VSB 1/2 WCI  15
$$

ABBREVIATIONS USED IN REMARKS
   TC - TEMPERATURE IN CELSIUS
  WCI - WIND CHILL INDEX
   HX - HEAT INDEX
  VSB - VISIBILITY





USA.gov is the U.S. government's official web portal to all federal, state and local government web resources and services.